Location: Northcutt
(34.7304°N, 84.4305°W)
Time: 10:38:46
(UTC+00:00)

A-11 Canister half - Pass Details

Date: 04 October 2022
Orbit: 1524 x 1685 km, 47.3° (Epoch: 30 November)

Event Time Altitude Azimuth Distance (km) Brightness Sun altitude
Rises 18:41:14 0° 210° (SSW) 4,687 12.3 46.9°
Reaches altitude 10° 18:44:26 10° 204° (SSW) 3,694 12.0 46.6°
Maximum altitude 18:53:11 48° 133° (SE) 1,909 10.2 45.7°
Drops below altitude 10° 19:01:57 10° 63° (ENE) 3,702 10.7 44.7°
Sets 19:05:08 0° 58° (ENE) 4,698 11.1 44.3°
